When you browse on this site, cookies collect data to enhance your experience and personalize the content and advertising you see.
Visit our Privacy Policy to learn more. By continuing to use the site, you agree to this use of cookies and data.
  • In Portugal
  • List of Countries
  • For 7 days
  • Water Temperature
  • Weather Map
  • Weather Widgets
  • user-avatar
    Login

    Hourly Weather Yastreby

    Today, 20 January, Monday

    Time Temperature Precipitation Wind Pressure Humidity
    00:00 0°C° 0 mm 4 mps 766 mmHg 89%
    01:00 0°C° 0 mm 4 mps 766 mmHg 87%
    02:00 +1°C° 0 mm 4 mps 767 mmHg 85%
    03:00 0°C° 0 mm 4 mps 767 mmHg 87%
    04:00 0°C° 0 mm 4 mps 767 mmHg 89%
    05:00 -1°C° 0 mm 4 mps 767 mmHg 91%
    06:00 -1°C° 0 mm 4 mps 767 mmHg 91%
    07:00 -1°C° 0 mm 4 mps 767 mmHg 91%
    08:00 -1°C° 0 mm 4 mps 767 mmHg 91%
    09:00 -1°C° 0 mm 4 mps 767 mmHg 88%
    10:00 0°C° 0 mm 4 mps 767 mmHg 86%
    11:00 0°C° 0 mm 4 mps 767 mmHg 84%
    12:00 +1°C° 0 mm 4 mps 767 mmHg 81%
    13:00 +1°C° 0 mm 4 mps 767 mmHg 77%
    14:00 +1°C° 0 mm 4 mps 767 mmHg 74%
    15:00 +1°C° 0 mm 4 mps 766 mmHg 74%
    16:00 0°C° 0 mm 4 mps 766 mmHg 74%
    17:00 0°C° 0 mm 4 mps 765 mmHg 74%
    18:00 0°C° 0 mm 4 mps 765 mmHg 75%
    19:00 0°C° 0 mm 5 mps 764 mmHg 76%
    20:00 0°C° 0 mm 5 mps 764 mmHg 77%
    21:00 0°C° 0 mm 5 mps 763 mmHg 80%
    22:00 0°C° 0 mm 5 mps 762 mmHg 83%
    23:00 -1°C° 0 mm 6 mps 762 mmHg 86%

    Tomorrow, 21 January, Tuesday

    Time Temperature Precipitation Wind Pressure Humidity
    00:00 +1°C° 0 mm 6 mps 761 mmHg 86%
    01:00 +1°C° 0 mm 6 mps 760 mmHg 86%
    02:00 +2°C° 0 mm 6 mps 760 mmHg 85%
    03:00 +2°C° 0 mm 6 mps 759 mmHg 86%
    04:00 +3°C° 0 mm 6 mps 758 mmHg 86%
    05:00 +3°C° 0 mm 7 mps 757 mmHg 86%
    06:00 +4°C° 0 mm 7 mps 757 mmHg 86%
    07:00 +4°C° 0 mm 7 mps 756 mmHg 86%
    08:00 +4°C° 0 mm 7 mps 756 mmHg 86%
    09:00 +5°C° 0 mm 7 mps 755 mmHg 86%
    10:00 +5°C° 0 mm 6 mps 755 mmHg 85%
    11:00 +5°C° 0 mm 6 mps 754 mmHg 84%
    12:00 +5°C° 0 mm 6 mps 753 mmHg 83%
    13:00 +7°C° 0 mm 6 mps 753 mmHg 81%
    14:00 +7°C° 0 mm 6 mps 752 mmHg 80%
    15:00 +5°C° 0.5 mm 6 mps 752 mmHg 82%
    16:00 +5°C° 0.5 mm 6 mps 752 mmHg 84%
    17:00 +4°C° 0.5 mm 6 mps 752 mmHg 86%
    18:00 +3°C° 0 mm 6 mps 753 mmHg 80%
    19:00 +2°C° 0 mm 6 mps 753 mmHg 74%
    20:00 +1°C° 0 mm 5 mps 753 mmHg 68%
    21:00 +1°C° 0 mm 5 mps 753 mmHg 70%
    22:00 0°C° 0 mm 5 mps 753 mmHg 72%
    23:00 0°C° 0 mm 5 mps 753 mmHg 74%

    Day after tomorrow, 22 January, Wednesday

    Time Temperature Precipitation Wind Pressure Humidity
    00:00 0°C° 0 mm 5 mps 752 mmHg 71%
    01:00 0°C° 0 mm 5 mps 752 mmHg 69%
    02:00 0°C° 0 mm 5 mps 751 mmHg 67%
    03:00 0°C° 0 mm 5 mps 751 mmHg 68%
    04:00 -1°C° 0 mm 5 mps 750 mmHg 69%
    05:00 -1°C° 0 mm 4 mps 749 mmHg 70%
    06:00 -1°C° 0.2 mm 4 mps 749 mmHg 75%
    07:00 -1°C° 0.2 mm 4 mps 748 mmHg 80%
    08:00 -1°C° 0.2 mm 5 mps 748 mmHg 85%
    09:00 -1°C° 0.1 mm 5 mps 748 mmHg 80%
    10:00 -1°C° 0.1 mm 5 mps 748 mmHg 75%
    11:00 -1°C° 0.1 mm 5 mps 748 mmHg 69%
    12:00 -1°C° 0 mm 5 mps 748 mmHg 69%
    13:00 -1°C° 0 mm 5 mps 748 mmHg 68%
    14:00 -1°C° 0 mm 5 mps 748 mmHg 68%
    15:00 -1°C° 0.1 mm 5 mps 748 mmHg 74%
    16:00 -2°C° 0.1 mm 5 mps 749 mmHg 81%
    17:00 -2°C° 0.1 mm 5 mps 749 mmHg 88%
    18:00 -2°C° 0 mm 5 mps 750 mmHg 83%
    19:00 -2°C° 0 mm 5 mps 750 mmHg 78%
    20:00 -2°C° 0 mm 5 mps 751 mmHg 73%
    21:00 -4°C° 0 mm 5 mps 752 mmHg 68%
    22:00 -4°C° 0 mm 5 mps 753 mmHg 64%
    23:00 -5°C° 0 mm 5 mps 754 mmHg 59%

    23 January, Thursday

    Time Temperature Precipitation Wind Pressure Humidity
    00:00 -5°C° 0 mm 5 mps 755 mmHg 59%
    01:00 -5°C° 0 mm 5 mps 755 mmHg 59%
    02:00 -5°C° 0 mm 5 mps 756 mmHg 59%
    03:00 -5°C° 0 mm 5 mps 757 mmHg 59%
    04:00 -4°C° 0 mm 4 mps 757 mmHg 58%
    05:00 -4°C° 0 mm 4 mps 758 mmHg 57%
    06:00 -4°C° 0 mm 4 mps 758 mmHg 58%
    07:00 -4°C° 0 mm 4 mps 758 mmHg 59%
    08:00 -4°C° 0 mm 4 mps 759 mmHg 59%
    09:00 -3°C° 0 mm 4 mps 759 mmHg 57%
    10:00 -4°C° 0 mm 5 mps 759 mmHg 55%
    11:00 -4°C° 0 mm 5 mps 759 mmHg 53%
    12:00 -2°C° 0 mm 5 mps 759 mmHg 55%
    13:00 -2°C° 0 mm 4 mps 759 mmHg 57%
    14:00 -1°C° 0 mm 4 mps 759 mmHg 58%
    15:00 -2°C° 0 mm 4 mps 758 mmHg 63%
    16:00 -2°C° 0 mm 4 mps 758 mmHg 67%
    17:00 -2°C° 0 mm 4 mps 757 mmHg 72%
    18:00 -2°C° 0 mm 4 mps 756 mmHg 73%
    19:00 -2°C° 0 mm 5 mps 756 mmHg 74%
    20:00 -2°C° 0 mm 5 mps 755 mmHg 75%
    21:00 -2°C° 0 mm 5 mps 754 mmHg 78%
    22:00 -1°C° 0 mm 5 mps 753 mmHg 80%
    23:00 -2°C° 0 mm 6 mps 752 mmHg 83%

    24 January, Friday

    Time Temperature Precipitation Wind Pressure Humidity
    00:00 -1°C° 0.1 mm 6 mps 752 mmHg 85%
    01:00 -1°C° 0.1 mm 6 mps 751 mmHg 87%
    02:00 +1°C° 0.1 mm 6 mps 750 mmHg 90%
    03:00 +2°C° 0.1 mm 5 mps 750 mmHg 90%
    04:00 +2°C° 0.1 mm 5 mps 749 mmHg 90%
    05:00 +3°C° 0.1 mm 5 mps 749 mmHg 90%
    06:00 +3°C° 0.1 mm 5 mps 749 mmHg 90%
    07:00 +3°C° 0.1 mm 5 mps 749 mmHg 90%
    08:00 +2°C° 0.1 mm 5 mps 749 mmHg 90%
    09:00 +3°C° 0 mm 4 mps 750 mmHg 90%
    10:00 +3°C° 0 mm 4 mps 750 mmHg 90%
    11:00 +3°C° 0 mm 4 mps 750 mmHg 90%
    12:00 +3°C° 0 mm 4 mps 750 mmHg 89%
    13:00 +3°C° 0 mm 4 mps 750 mmHg 89%
    14:00 +3°C° 0 mm 4 mps 750 mmHg 88%
    15:00 +3°C° 0 mm 3 mps 750 mmHg 89%
    16:00 +2°C° 0 mm 3 mps 750 mmHg 91%
    17:00 +3°C° 0 mm 2 mps 750 mmHg 92%
    18:00 +3°C° 0 mm 2 mps 750 mmHg 93%
    19:00 +3°C° 0 mm 3 mps 750 mmHg 93%
    20:00 +3°C° 0 mm 3 mps 750 mmHg 94%
    21:00 +3°C° 0.2 mm 3 mps 749 mmHg 94%
    22:00 +3°C° 0.2 mm 3 mps 749 mmHg 94%
    23:00 +3°C° 0.2 mm 4 mps 748 mmHg 94%

    25 January, Saturday

    Time Temperature Precipitation Wind Pressure Humidity
    00:00 +4°C° 0.3 mm 4 mps 748 mmHg 93%
    01:00 +3°C° 0.3 mm 5 mps 748 mmHg 92%
    02:00 +3°C° 0.3 mm 5 mps 747 mmHg 91%
    03:00 +3°C° 0.1 mm 5 mps 747 mmHg 90%
    04:00 +3°C° 0.1 mm 5 mps 747 mmHg 90%
    05:00 +4°C° 0.1 mm 4 mps 747 mmHg 89%
    06:00 +4°C° 0.1 mm 4 mps 747 mmHg 90%
    07:00 +4°C° 0.1 mm 4 mps 747 mmHg 91%
    08:00 +4°C° 0.1 mm 4 mps 747 mmHg 91%
    09:00 +4°C° 0.1 mm 4 mps 748 mmHg 90%
    10:00 +5°C° 0.1 mm 4 mps 748 mmHg 88%
    11:00 +5°C° 0.1 mm 4 mps 749 mmHg 86%
    12:00 +5°C° 0.1 mm 4 mps 749 mmHg 83%
    13:00 +5°C° 0.1 mm 4 mps 749 mmHg 79%
    14:00 +5°C° 0.1 mm 4 mps 749 mmHg 76%
    15:00 +5°C° 0 mm 3 mps 749 mmHg 77%
    16:00 +4°C° 0 mm 3 mps 749 mmHg 78%
    17:00 +5°C° 0 mm 2 mps 750 mmHg 80%
    18:00 +4°C° 0 mm 3 mps 750 mmHg 81%
    19:00 +4°C° 0 mm 3 mps 749 mmHg 82%
    20:00 +4°C° 0 mm 3 mps 749 mmHg 83%
    21:00 +4°C° 0 mm 3 mps 749 mmHg 84%
    22:00 +4°C° 0 mm 4 mps 749 mmHg 85%
    23:00 +4°C° 0 mm 4 mps 749 mmHg 87%
    Show more